Location: Basses Si�yes
(44.0835°N, 6.2037°E)
Time: 05:09:02
(UTC+00:00)

Meteor 2-9 - Pass Details

Date: 27 February 2020
Orbit: 802 x 879 km, 81.2° (Epoch: 28 March)

Event Time Altitude Azimuth Distance (km) Brightness Sun altitude
Rises 19:19:26 0° 188° (S) 3,318 7.8 -22.1°
Reaches altitude 10° 19:21:48 10° 188° (S) 2,384 7.0 -22.6°
Maximum altitude 19:27:12 89° 97° (E) 810 4.5 -23.5°
Drops below altitude 10° 19:32:36 10° 11° (N) 2,391 7.1 -24.5°
Sets 19:34:59 0° 11° (N) 3,328 7.8 -24.9°
